Location: Canet
(43.3261°N, 5.3723°E)
Time: 18:01:26
(UTC+00:00)

YAOGAN 1 - Pass Details

Date: 24 January 2021
Orbit: 618 x 620 km, 97.9° (Epoch: 07 March)

Event Time Altitude Azimuth Distance (km) Brightness Sun altitude
Rises 18:00:02 0° 155° (SSE) 2,884 5.9 -14.6°
Reaches altitude 10° 18:02:14 10° 151° (SSE) 1,983 5.0 -15.0°
Maximum altitude 18:06:27 56° 73° (ENE) 739 2.6 -15.7°
Drops below altitude 10° 18:10:42 10° 356° (N) 1,998 5.1 -16.5°
Sets 18:12:55 0° 352° (N) 2,908 6.0 -16.9°
